Location: *
(46.1333°S, 161.2167°W)
Time: 04:16:06
(UTC+00:00)

Cosmos 2263 Rocket - Pass Details

Date: 15 July 2020
Orbit: 825 x 847 km, 71.0° (Epoch: 10 August)

Event Time Altitude Azimuth Distance (km) Brightness Sun altitude
Exits shadow 16:49:32 15° 217° (SW) 2,139 3.8 -15.5°
Maximum altitude 16:54:07 55° 290° (WNW) 1,028 2.3 -14.7°
Drops below altitude 10° 16:59:39 10° 6° (N) 2,470 4.9 -13.8°
Sets 17:02:07 0° 10° (N) 3,395 5.7 -13.4°
